Time,TemperatureF,DewpointF,PressureIn,WindDirection,WindDirectionDegrees,WindSpeedMPH,WindSpeedGustMPH,Humidity,HourlyPrecipIn,Conditions,Clouds,dailyrainin,SoftwareType,DateUTC
2013-10-13 00:00:00,67.0,49.0,30.21,East,80,5.0,-999.0,54,-99.99,,,-99.99,,2013-10-13 00:00:00,
2013-10-13 00:42:00,67.0,49.0,30.21,East,80,5.0,-999.0,54,-99.99,,,-99.99,,2013-10-13 00:42:00,
2013-10-13 00:52:00,67.0,49.0,30.21,East,80,5.0,-999.0,54,-99.99,,,-99.99,,2013-10-13 00:52:00,
2013-10-13 01:00:00,63.0,54.0,30.22,ENE,70,5.0,-999.0,70,-99.99,,,-99.99,,2013-10-13 01:00:00,
2013-10-13 01:42:00,63.0,54.0,30.22,ENE,70,5.0,-999.0,70,-99.99,,,-99.99,,2013-10-13 01:42:00,
2013-10-13 01:52:00,63.0,54.0,30.22,ENE,70,5.0,-999.0,70,-99.99,,,-99.99,,2013-10-13 01:52:00,
2013-10-13 02:00:00,62.0,55.0,30.23,East,90,2.0,-999.0,77,-99.99,,,-99.99,,2013-10-13 02:00:00,
2013-10-13 02:42:00,62.0,55.0,30.23,East,90,2.0,-999.0,77,-99.99,,,-99.99,,2013-10-13 02:42:00,
2013-10-13 02:52:00,62.0,55.0,30.23,East,90,2.0,-999.0,77,-99.99,,,-99.99,,2013-10-13 02:52:00,
2013-10-13 03:00:00,-999.0,-99.9,-100.00,NE,40,3.0,-999.0,-999,-99.99,,,-99.99,,2013-10-13 03:00:00,
2013-10-13 03:44:00,61.0,55.0,30.25,NE,40,3.0,-999.0,82,-99.99,,,-99.99,,2013-10-13 03:44:00,
2013-10-13 03:54:00,61.0,55.0,30.25,NE,40,3.0,-999.0,82,-99.99,,,-99.99,,2013-10-13 03:54:00,
2013-10-13 05:00:00,60.0,51.0,30.27,SE,130,7.0,-999.0,73,-99.99,,,-99.99,,2013-10-13 05:00:00,
2013-10-13 05:43:00,60.0,51.0,30.27,SE,130,7.0,-999.0,73,-99.99,,,-99.99,,2013-10-13 05:43:00,
2013-10-13 05:52:00,60.0,51.0,30.27,SE,130,7.0,-999.0,73,-99.99,,,-99.99,,2013-10-13 05:52:00,
2013-10-13 06:00:00,59.0,51.0,30.28,SSE,150,6.0,-999.0,75,-99.99,,,-99.99,,2013-10-13 06:00:00,
2013-10-13 06:42:00,59.0,51.0,30.28,SSE,150,6.0,-999.0,75,-99.99,,,-99.99,,2013-10-13 06:42:00,
2013-10-13 06:52:00,59.0,51.0,30.28,SSE,150,6.0,-999.0,75,-99.99,,,-99.99,,2013-10-13 06:52:00,
2013-10-13 07:00:00,58.0,51.0,30.27,SE,140,6.0,-999.0,78,-99.99,,,-99.99,,2013-10-13 07:00:00,
2013-10-13 07:42:00,58.0,51.0,30.27,SE,140,6.0,-999.0,78,-99.99,,,-99.99,,2013-10-13 07:42:00,
2013-10-13 07:52:00,58.0,51.0,30.27,SE,140,6.0,-999.0,78,-99.99,,,-99.99,,2013-10-13 07:52:00,
2013-10-13 08:00:00,56.0,50.0,30.28,SSE,150,8.0,-999.0,79,-99.99,,,-99.99,,2013-10-13 08:00:00,
2013-10-13 08:42:00,56.0,50.0,30.28,SSE,150,8.0,-999.0,79,-99.99,,,-99.99,,2013-10-13 08:42:00,
2013-10-13 08:52:00,56.0,50.0,30.28,SSE,150,8.0,-999.0,79,-99.99,,,-99.99,,2013-10-13 08:52:00,
2013-10-13 10:00:00,56.0,50.0,30.31,SE,140,5.0,-999.0,80,-99.99,,,-99.99,,2013-10-13 10:00:00,
2013-10-13 10:43:00,56.0,50.0,30.31,SE,140,5.0,-999.0,80,-99.99,,,-99.99,,2013-10-13 10:43:00,
2013-10-13 10:52:00,56.0,50.0,30.31,SE,140,5.0,-999.0,80,-99.99,,,-99.99,,2013-10-13 10:52:00,
2013-10-13 11:00:00,55.0,50.0,30.32,SE,130,5.0,-999.0,83,-99.99,,,-99.99,,2013-10-13 11:00:00,
2013-10-13 11:42:00,55.0,50.0,30.32,SE,130,5.0,-999.0,83,-99.99,,,-99.99,,2013-10-13 11:42:00,
2013-10-13 11:52:00,55.0,50.0,30.32,SE,130,5.0,-999.0,83,-99.99,,,-99.99,,2013-10-13 11:52:00,
2013-10-13 12:00:00,55.0,49.0,30.33,SSE,160,3.0,-999.0,80,-99.99,,,-99.99,,2013-10-13 12:00:00,
2013-10-13 12:42:00,55.0,49.0,30.33,SSE,160,3.0,-999.0,80,-99.99,,,-99.99,,2013-10-13 12:42:00,
2013-10-13 12:52:00,55.0,49.0,30.33,SSE,160,3.0,-999.0,80,-99.99,,,-99.99,,2013-10-13 12:52:00,
2013-10-13 13:00:00,56.0,49.0,30.33,SE,140,7.0,-999.0,76,-99.99,,,-99.99,,2013-10-13 13:00:00,
2013-10-13 13:42:00,56.0,49.0,30.33,SE,140,7.0,-999.0,76,-99.99,,,-99.99,,2013-10-13 13:42:00,
2013-10-13 13:52:00,56.0,49.0,30.33,SE,140,7.0,-999.0,76,-99.99,,,-99.99,,2013-10-13 13:52:00,
2013-10-13 14:00:00,59.0,49.0,30.34,ENE,60,1.0,-999.0,68,-99.99,,,-99.99,,2013-10-13 14:00:00,
2013-10-13 14:41:00,59.0,49.0,30.34,ENE,60,1.0,-999.0,68,-99.99,,,-99.99,,2013-10-13 14:41:00,
2013-10-13 14:52:00,59.0,49.0,30.34,ENE,60,1.0,-999.0,68,-99.99,,,-99.99,,2013-10-13 14:52:00,
2013-10-13 15:00:00,60.0,51.0,30.34,North,350,5.0,-999.0,73,-99.99,,,-99.99,,2013-10-13 15:00:00,
2013-10-13 15:43:00,60.0,51.0,30.34,North,350,5.0,-999.0,73,-99.99,,,-99.99,,2013-10-13 15:43:00,
2013-10-13 15:54:00,60.0,51.0,30.34,North,350,5.0,-999.0,73,-99.99,,,-99.99,,2013-10-13 15:54:00,
2013-10-13 16:00:00,61.0,51.0,30.33,North,10,5.0,-999.0,68,-99.99,,,-99.99,,2013-10-13 16:00:00,
2013-10-13 16:42:00,61.0,51.0,30.33,North,10,5.0,-999.0,68,-99.99,,,-99.99,,2013-10-13 16:42:00,
2013-10-13 16:54:00,61.0,51.0,30.33,North,10,5.0,-999.0,68,-99.99,,,-99.99,,2013-10-13 16:54:00,
2013-10-13 17:00:00,64.0,51.0,30.31,WNW,290,3.0,-999.0,63,-99.99,,,-99.99,,2013-10-13 17:00:00,
2013-10-13 17:43:00,64.0,51.0,30.31,WNW,290,3.0,-999.0,63,-99.99,,,-99.99,,2013-10-13 17:43:00,
2013-10-13 17:52:00,64.0,51.0,30.31,WNW,290,3.0,-999.0,63,-99.99,,,-99.99,,2013-10-13 17:52:00,
2013-10-13 18:00:00,66.0,51.0,30.29,SSW,210,11.0,-999.0,57,-99.99,,,-99.99,,2013-10-13 18:00:00,
2013-10-13 18:42:00,66.0,51.0,30.29,SSW,210,11.0,-999.0,57,-99.99,,,-99.99,,2013-10-13 18:42:00,
2013-10-13 18:52:00,66.0,51.0,30.29,SSW,210,11.0,-999.0,57,-99.99,,,-99.99,,2013-10-13 18:52:00,
2013-10-13 19:00:00,66.0,52.0,30.28,SSW,210,11.0,-999.0,59,-99.99,,,-99.99,,2013-10-13 19:00:00,
2013-10-13 19:42:00,66.0,52.0,30.28,SSW,210,11.0,-999.0,59,-99.99,,,-99.99,,2013-10-13 19:42:00,
2013-10-13 19:52:00,66.0,52.0,30.28,SSW,210,11.0,-999.0,59,-99.99,,,-99.99,,2013-10-13 19:52:00,